Weather History for Lexington, NE

Change the Weather History Date:

Thursday, June 12, 2014

  Actual Average Record
Temperature  
Mean Temperature 60 °F -  
Max Temperature 72 °F 77 °F 93 °F (2000)
Min Temperature 49 °F 53 °F 46 °F (2008)
Degree Days  
Heating Degree Days 4    
Growing Degree Days 10 (Base 50)    
Moisture  
Dew Point 48 °F    
Average Humidity 62    
Maximum Humidity 90    
Minimum Humidity 39    
Precipitation  
Precipitation 0.00 in - - ()
Sea Level Pressure  
Sea Level Pressure 30.10 in    
Wind  
Wind Speed 11 mph (North)    
Max Wind Speed 18 mph    
Max Gust Speed 24 mph    
Visibility 10 miles    
Events      
Averages and records for this station are not official NWS values.
T = Trace of Precipitation, MM = Missing Value Source: NWS Daily Summary

Daily Weather History Graph

Daily Weather History Graph

Search for Another Location

Airport:

Trip Planner

Search our weather history database for the weather conditions in past years. The results will help you decide how hot, cold, wet, or windy it might be!

Date:

Astronomy

Jun. 12, 2014 Rise Set
Actual Time 6:07 AM CDT 9:11 PM CDT
Civil Twilight 5:33 AM CDT 9:44 PM CDT
Nautical Twilight 4:51 AM CDT 10:26 PM CDT
Astronomical Twilight 4:01 AM CDT 11:17 PM CDT
Moon 8:44 PM CDT (6/12) 5:50 AM CDT (6/12)
Length of Visible Light 16h 10m
Length of Day
15h 03m
Full, 100% of the Moon is Illuminated
Jun 12
Full
Jun 12
Full
Jun 19
Last Quarter
Jun 27
New
Jul 5
First Quarter

Hourly Weather History & Observations

Time (CDT) Temp. Dew Point Humidity Pressure Visibility Wind Dir Wind Speed Gust Speed Precip Events Conditions
12:15 AM 62.8 °F 53.6 °F 72% 30.00 in 10.0 mi North 13.8 mph - N/A   Clear
12:35 AM 62.1 °F 52.9 °F 72% 29.99 in 10.0 mi North 13.8 mph - N/A   Clear
12:55 AM 61.3 °F 52.2 °F 72% 29.99 in 10.0 mi North 13.8 mph - N/A   Clear
1:15 AM 61.0 °F 50.0 °F 67% 30.00 in 10.0 mi North 16.1 mph 23.0 mph N/A   Clear
1:35 AM 60.3 °F 49.6 °F 68% 30.01 in 10.0 mi North 13.8 mph 23.0 mph N/A   Clear
1:55 AM 59.0 °F 50.0 °F 72% 30.01 in 10.0 mi North 13.8 mph 20.7 mph N/A   Clear
2:15 AM 58.1 °F 49.6 °F 73% 30.01 in 10.0 mi North 13.8 mph 20.7 mph N/A   Clear
2:35 AM 57.0 °F 49.3 °F 75% 30.02 in 10.0 mi NNW 15.0 mph 23.0 mph N/A   Clear
2:55 AM 55.6 °F 48.7 °F 78% 30.02 in 10.0 mi North 15.0 mph - N/A   Clear
3:15 AM 55.0 °F 48.2 °F 78% 30.03 in 10.0 mi North 16.1 mph 24.2 mph N/A   Clear
3:35 AM 54.5 °F 48.2 °F 79% 30.04 in 10.0 mi North 18.4 mph 21.9 mph N/A   Clear
3:55 AM 54.0 °F 48.2 °F 81% 30.05 in 10.0 mi North 17.3 mph - N/A   Clear
4:15 AM 53.6 °F 48.4 °F 82% 30.05 in 10.0 mi NNW 16.1 mph 20.7 mph N/A   Clear
4:35 AM 52.7 °F 48.2 °F 85% 30.06 in 10.0 mi NNW 10.4 mph - N/A   Clear
5:15 AM 51.6 °F 47.7 °F 86% 30.07 in 10.0 mi NNW 6.9 mph - N/A   Clear
5:35 AM 51.1 °F 47.7 °F 88% 30.08 in 10.0 mi North 5.8 mph - N/A   Scattered Clouds
5:55 AM 50.9 °F 47.5 °F 88% 30.10 in 10.0 mi North 5.8 mph - N/A   Mostly Cloudy
6:35 AM 49.6 °F 46.9 °F 90% 30.12 in 10.0 mi NNW 5.8 mph - N/A   Scattered Clouds
6:55 AM 50.9 °F 47.8 °F 89% 30.12 in 10.0 mi North 5.8 mph - N/A   Mostly Cloudy
7:15 AM 51.4 °F 47.7 °F 87% 30.12 in 10.0 mi North 6.9 mph - N/A   Scattered Clouds
7:35 AM 52.2 °F 47.8 °F 85% 30.11 in 10.0 mi North 9.2 mph - N/A   Clear
7:55 AM 53.4 °F 48.4 °F 83% 30.11 in 10.0 mi North 11.5 mph 16.1 mph N/A   Clear
8:35 AM 55.8 °F 48.7 °F 77% 30.12 in 10.0 mi North 13.8 mph 17.3 mph N/A   Clear
8:55 AM 56.3 °F 48.0 °F 74% 30.12 in 10.0 mi North 13.8 mph 18.4 mph N/A   Clear
9:35 AM 59.2 °F 47.3 °F 65% 30.13 in 10.0 mi NNE 13.8 mph 18.4 mph N/A   Clear
9:55 AM 60.1 °F 47.5 °F 63% 30.14 in 10.0 mi North 13.8 mph 17.3 mph N/A   Clear
10:15 AM 60.3 °F 46.2 °F 60% 30.14 in 10.0 mi North 10.4 mph - N/A   Clear
10:35 AM 62.6 °F 45.9 °F 54% 30.15 in 10.0 mi North 8.1 mph - N/A   Clear
10:55 AM 63.1 °F 46.0 °F 54% 30.15 in 10.0 mi NNW 13.8 mph - N/A   Clear
11:15 AM 64.6 °F 46.6 °F 52% 30.15 in 10.0 mi North 10.4 mph 19.6 mph N/A   Clear
11:35 AM 65.5 °F 46.8 °F 51% 30.15 in 10.0 mi NNW 13.8 mph - N/A   Clear
11:55 AM 65.5 °F 46.9 °F 51% 30.15 in 10.0 mi North 15.0 mph - N/A   Clear
12:15 PM 65.7 °F 48.2 °F 53% 30.15 in 10.0 mi North 11.5 mph 17.3 mph N/A   Clear
12:35 PM 66.2 °F 48.0 °F 52% 30.15 in 10.0 mi NW 10.4 mph 19.6 mph N/A   Clear
1:15 PM 67.8 °F 48.2 °F 49% 30.14 in 10.0 mi North 13.8 mph 17.3 mph N/A   Clear
1:35 PM 68.0 °F 47.7 °F 48% 30.14 in 10.0 mi North 9.2 mph 17.3 mph N/A   Clear
1:55 PM 68.7 °F 47.7 °F 47% 30.13 in 5.0 mi North 5.8 mph 18.4 mph N/A   Haze
2:15 PM 69.6 °F 48.2 °F 46% 30.13 in 7.0 mi NNW 9.2 mph 21.9 mph N/A   Clear
2:35 PM 69.8 °F 47.8 °F 46% 30.13 in 10.0 mi NNW 11.5 mph 16.1 mph N/A   Clear
2:55 PM 70.3 °F 49.5 °F 47% 30.12 in 10.0 mi North 13.8 mph 18.4 mph N/A   Clear
3:15 PM 70.9 °F 48.0 °F 44% 30.12 in 10.0 mi North 6.9 mph 16.1 mph N/A   Clear
3:35 PM 71.6 °F 48.2 °F 43% 30.11 in 10.0 mi NNE 9.2 mph - N/A   Clear
3:55 PM 71.4 °F 48.9 °F 45% 30.11 in 10.0 mi North 11.5 mph 17.3 mph N/A   Clear
4:15 PM 72.5 °F 48.6 °F 43% 30.10 in 10.0 mi North 9.2 mph - N/A   Clear
4:35 PM 71.8 °F 46.6 °F 41% 30.10 in 10.0 mi North 4.6 mph 10.4 mph N/A   Clear
4:55 PM 71.8 °F 47.5 °F 42% 30.10 in 10.0 mi NNW 9.2 mph - N/A   Clear
5:15 PM 72.3 °F 47.8 °F 42% 30.10 in 10.0 mi North 11.5 mph - N/A   Clear
5:35 PM 72.0 °F 47.1 °F 41% 30.10 in 10.0 mi North 4.6 mph - N/A   Clear
5:55 PM 72.3 °F 48.2 °F 42% 30.09 in 10.0 mi NE 10.4 mph - N/A   Clear
6:15 PM 72.3 °F 47.1 °F 41% 30.09 in 10.0 mi NNE 6.9 mph - N/A   Clear
6:35 PM 70.9 °F 47.1 °F 43% 30.08 in 10.0 mi NNE 6.9 mph - N/A   Clear
6:55 PM 71.6 °F 45.3 °F 39% 30.08 in 10.0 mi NNE 8.1 mph - N/A   Clear
7:15 PM 71.2 °F 45.1 °F 39% 30.08 in 10.0 mi NNE 3.5 mph - N/A   Clear
7:35 PM 70.7 °F 45.3 °F 40% 30.08 in 10.0 mi NNE 9.2 mph - N/A   Clear
7:55 PM 69.8 °F 45.9 °F 42% 30.08 in 10.0 mi NE 9.2 mph - N/A   Clear
8:15 PM 68.4 °F 45.9 °F 44% 30.09 in 10.0 mi NE 9.2 mph - N/A   Clear
8:35 PM 66.9 °F 47.1 °F 49% 30.10 in 10.0 mi NE 4.6 mph - N/A   Clear
8:55 PM 64.4 °F 48.6 °F 56% 30.10 in 10.0 mi NE 5.8 mph - N/A   Clear
9:15 PM 61.7 °F 50.9 °F 68% 30.10 in 10.0 mi ENE 6.9 mph - N/A   Clear
9:35 PM 61.0 °F 51.3 °F 70% 30.11 in 10.0 mi East 5.8 mph - N/A   Clear
9:55 PM 60.3 °F 52.0 °F 74% 30.11 in 10.0 mi ENE 5.8 mph - N/A   Clear
10:15 PM 60.1 °F 51.8 °F 74% 30.12 in 10.0 mi East 5.8 mph - N/A   Clear
10:35 PM 59.2 °F 50.5 °F 73% 30.13 in 10.0 mi East 4.6 mph - N/A   Clear
10:55 PM 59.0 °F 50.4 °F 73% 30.13 in 10.0 mi ENE 4.6 mph - N/A   Clear
11:15 PM 57.4 °F 50.7 °F 78% 30.13 in 10.0 mi East 5.8 mph - N/A   Clear
11:35 PM 55.6 °F 48.7 °F 78% 30.13 in 10.0 mi East 5.8 mph - N/A   Clear
11:55 PM 55.8 °F 47.3 °F 73% 30.13 in 10.0 mi East 4.6 mph - N/A   Clear